This is the latest recevied weather packets stored in our database for station/object AE4BA-13. If no packets are shown the sender has not sent any weather packets the latest 10 day(s).
| Time | Temp. | Humidity | Pressure | Rain* | Wind** | Luminosity | Snow |
|---|---|---|---|---|---|---|---|
| 1788626614 | 28.89° C | 57% | 1006.6 hPa | 0 mm | - | 606 W/m² | - |
| 1788626014 | 29.44° C | 56% | 1006.7 hPa | 0 mm | - | 754 W/m² | - |
| 1788625414 | 29.44° C | 56% | 1007.1 hPa | 0 mm | - | 773 W/m² | - |
| 1788624814 | 28.33° C | 60% | 1007 hPa | 0 mm | - | 796 W/m² | - |
| 1788624223 | 27.22° C | 62% | 1007.1 hPa | 0 mm | - | 783 W/m² | - |
| 1788623614 | 26.11° C | 68% | 1007.5 hPa | 0 mm | - | 690 W/m² | - |
| 1788623038 | 25.56° C | 71% | 1007.7 hPa | 0 mm | - | 329 W/m² | - |
| 1788622440 | 25.56° C | 71% | 1007.2 hPa | 0 mm | - | 253 W/m² | - |
| 1788622268 | 25.56° C | 72% | 1007.3 hPa | 0 mm | - | 214 W/m² | - |
| 1788621884 | 25.56° C | 73% | 1007.6 hPa | 0 mm | - | 194 W/m² | - |
| 1788621726 | 25.56° C | 72% | 1007.7 hPa | 0 mm | - | 199 W/m² | - |
| 1788621544 | 25.56° C | 71% | 1007.7 hPa | 0 mm | - | 196 W/m² | - |
| 1788621467 | 25.56° C | 71% | 1007.7 hPa | 0 mm | - | 192 W/m² | - |
| 1788621072 | 25.56° C | 70% | 1007.5 hPa | 0 mm | - | 175 W/m² | - |
| 1788621021 | 25.56° C | 70% | 1007.5 hPa | 0 mm | - | 175 W/m² | - |
| 1788620931 | 25.56° C | 71% | 1007.5 hPa | 0 mm | - | 172 W/m² | - |
| 1788620277 | 26.11° C | 72% | 1007.7 hPa | 0 mm | - | 118 W/m² | - |
| 1788619677 | 26.67° C | 72% | 1007.7 hPa | 0 mm | - | 80 W/m² | - |
| 1788619077 | 27.22° C | 70% | 1007.5 hPa | 0 mm | - | 89 W/m² | - |
| 1788618477 | 27.22° C | 70% | 1007.3 hPa | 0 mm | - | 156 W/m² | - |
| 1788617877 | 27.22° C | 69% | 1007.3 hPa | 0 mm | - | 217 W/m² | - |
| 1788617297 | 26.67° C | 69% | 1007.1 hPa | 0 mm | - | 270 W/m² | - |
| 1788616677 | 26.11° C | 74% | 1007.1 hPa | 0 mm | - | 253 W/m² | - |
| 1788616077 | 25.56° C | 73% | 1007 hPa | 0 mm | - | 236 W/m² | - |
| 1788615477 | 25° C | 74% | 1007 hPa | 0 mm | - | 160 W/m² | - |
* Rain latest hour (hover to see other rain measurements)
** Current wind speed in m/s (hover to see current wind gust speed)